Regional Weather Roundup
Issued by NWS Binghamton, NY

Home | Current Version | Previous Version | Text Only | Print | Product List | Glossary On
Versions: 1 2 3 4 5 6 7 8 9 10 11 12 13 14 15 16 17 18 19 20 21 22 23 24 25 26 27 28 29 30 31 32 33 34 35 36 37 38 39 40 41 42 43 44 45 46 47 48 49 50
000
ASUS41 KBGM 051510
RWRBGM
RWRBGM
BINGHAMTON REGIONAL WEATHER ROUNDUP
NATIONAL WEATHER SERVICE BINGHAMTON NY
1000 AM EST THU MAR 05 2015

Note: "fair" indicates few or no clouds below 12,000 feet with no
significant weather and/or obstructions to visibility.

* = Station(s) that does not report precipitation, such as rain,
snow, etc, also no thunder or fog.

!NYZ009-015>018-022>025-036-037-044>046-055>057-062-051600
...CENTRAL NEW YORK...

CITY           SKY/WX    TMP DP  RH WIND       PRES   REMARKS
BINGHAMTON     CLOUDY    11   1  64 NW13G21   30.10S WCI  -4
CORTLAND       PTSUNNY   14   5  67 NW8G16    30.19S WCI   3
DANSVILLE      CLOUDY    12   0  58 NW12      30.27S WCI  -2
ELMIRA         CLOUDY    15   1  53 N10       30.22R WCI   2
ITHACA         FLURRIES  12   3  67 N14       30.21S WCI  -3
MONTICELLO     CLOUDY    18   3  53 NW15      30.08S WCI   3
NORWICH        SUNNY     14   0  52 NW9G17    30.17F WCI   2
ONEONTA        MOSUNNY   12   0  57 NW9G16    30.08S WCI   0
PENN YAN       CLOUDY    13   0  56 NW9       30.24S WCI   1
ROME           CLOUDY    13   3  64 W10       30.23R WCI   0
SIDNEY         PTSUNNY   18   1  49 NW8       30.16S WCI   7
SYRACUSE       CLOUDY    10   3  73 NW12      30.26S WCI  -5
$$

!PAZ038>040-043-044-047-048-072-051600
...NORTHEAST PENNSYLVANIA...

CITY           SKY/WX    TMP DP  RH WIND       PRES   REMARKS
HAZLETON       CLOUDY    18   9  68 NW12G17   30.10F WCI   5
SCRANTON       CLOUDY    19   4  51 N12       30.16R WCI   7
TOWANDA*       MOSUNNY   18   1  49 N12       30.22S WCI   5
$$
&&
KEY
WCI = WIND CHILL INDEX
VSB = VISIBILITY
HX  = HEAT INDEX
$$


USA.gov is the U.S. government's official web portal to all federal, state and local government web resources and services.